www.pogodaiklimat.ru

Погода и климат >> Архив погоды >> Россия >> Башкирия >> Зилаир


ПОГОДА в Зилаире

  • Прогноз погоды в Зилаире
  • Монитор погоды в Зилаире
  • Климат города

АРХИВ ПОГОДЫ в Зилаире

Время (UTC), дата Ветер
(напр.,м/с)
 
Видим.   Явления Облачность Т
(С)
Тd
(С)
f
(%)
Тe
(С)
Тes
(С)
Комфортность P
(гПа)
Po
(гПа)
Тmin
(С)
Tmax
(С)
R
(мм)
R24
(мм)
S
(см)
03 14.06 ЮЗ 3 10 км в посл. час ливневой дождь 10/10 600 м
[Cb calv]
+12.5 +3.2 53 +11 +11 1010.1 949.6 +11.5 0.0
06 14.06 ЮЗ 4 20 км {ливн. осадки} 9/5 600 м
[Sc Ac trans]
+16.1 +4.5 46 +15 +18 1009.4 949.7
09 14.06 З 4
{11}
20 км 9/5 600 м
[Sc Ac trans]
+17.8 +8.6 55 +18 +21 1009.4 950.1
12 14.06 З 4 20 км {ливн. осадки} 8/8 600 м
[Cu med, cong]
+19.3 +10.5 57 +20 +21 1009.4 950.4
15 14.06 СЗ 4 20 км 8/5 600 м
[Cu Sc Cs]
+19.0 +9.2 53 +20 +20 1009.5 950.4 +20.3 0.0
18 14.06 СЗ 2 10 км 9/4 600 м
[Cu med, cong Ac trans Cc]
+15.3 +8.6 64 +15 +15 1011.1 951.2
21 14.06 ЮВ 1 10 км 9/0
[Ac trans]
+9.3 +6.6 83 +9 +9 1012.6 951.3
00 15.06 С 1 10 км 9/0
[Ac trans Ci sp]
+7.0 +5.6 91 +6 +6 1013.7 951.9
03 15.06 С 1 10 км 9/0
[Ac trans Cc]
+10.6 +6.4 75 +10 +14 1013.9 952.8 +6.9
06 15.06 СЗ 3 20 км 10/0
[Ac As]
+14.9 +3.6 47 +14 +18 1013.0 952.8
09 15.06 СЗ 3 20 км 8/3 600 м
[Cu med, cong Ac trans]
+17.5 +1.5 34 +18 +23 1011.9 952.3
12 15.06 С 4 20 км 8/3 600 м
[Cu med, cong Ac trans Cc]
+17.4 +2.5 37 +17 +20 1011.8 952.2
15 15.06 СЗ 2 20 км 10/10 600 м
[Sc]
+14.0 +3.5 49 +14 +14 1013.1 952.7 +18.8
18 15.06 С 2 10 км 9/8 600 м
[Sc Ac lent]
+11.8 +4.1 59 +11 +11 1013.7 952.8
21 15.06 С 1 10 км 10/10 600 м
[Cu Sc]
+8.8 +4.6 75 +8 +8 1014.4 952.9
00 16.06 СВ 1 10 км 6/3 600 м
[Sc Ac trans Ci fib]
+5.3 +3.5 88 +4 +4 1014.9 952.6
03 16.06 С 1 20 км 5/3 600 м
[Sc Cs]
+10.8 +3.3 60 +11 +14 1013.7 952.6 +4.6
06 16.06 С 3 20 км 8/5 600 м
[Cu med, cong Ci fib]
+14.1 +0.7 40 +13 +18 1012.6 952.2
09 16.06 СЗ 3 20 км 3/3 600 м
[Cu hum]
+16.7 +0.3 33 +17 +26 1010.9 951.2
12 16.06 СЗ 3 20 км 6/3 600 м
[Cu hum Ci fib]
+16.9 -0.8 30 +17 +21 1010.7 951.0
15 16.06 С 4 20 км 5/3 600 м
[Sc diur, vesp Ci fib]
+15.3 +1.0 38 +15 +15 1010.9 950.9 +17.6
18 16.06 С 1 10 км 3/0
[Ci fib]
+9.8 +2.2 59 +10 +10 1013.0 951.7
21 16.06 С 1 10 км ясно +4.3 +1.8 84 +3 +3 1013.7 951.2
00 17.06 СВ 1 10 км ясно +2.4 +1.1 91 +1 +1 1013.8 950.9
03 17.06 С 3 20 км 3/0
[Ac lent]
+8.8 +4.2 73 +6 +9 1012.1 950.7 +1.9
06 17.06 С 5 10 км 9/9 600 м
[Cu med, cong]
+12.0 +5.2 63 +10 +10 1010.7 950.1
09 17.06 С 5-10
{11}
10 км 8/5 600 м
[Cu med, cong Ac trans Ci sp]
+15.5 +6.0 53 +14 +17 1009.4 949.6
12 17.06 СЗ 5-10
{10}
10 км 9/6 600 м
[Cb calv Ac cuf Ci sp]
+16.4 +5.7 49 +16 +17 1007.9 948.3
15 17.06 С 3
{10}
10 км {ливн. осадки} 9/8 600 м
[Cb calv Ac cuf]
+12.7 +6.9 68 +11 +12 1008.9 948.6 +17.8 0.6
18 17.06 С 2 10 км {ливн. осадки} 10/10 600 м
[Sc]
+11.4 +6.7 73 +10 +10 1009.6 948.9
21 17.06 СВ 2 10 км ясно +7.0 +5.8 92 +5 +5 1010.3 948.7
00 18.06 С 1 4000 м дымка 8/0
[Ac lent Ci fib]
+4.6 +3.7 94 +3 +3 1010.9 948.7
03 18.06 С 2 4000 м дымка {туман} 6/0
[Ci sp]
+8.1 +7.3 95 +6 +10 1010.3 948.9 +4.5
06 18.06 С 3 20 км {туман} 8/6 600 м
[Cu med, cong Ci fib]
+15.5 +4.8 49 +15 +19 1008.2 948.4
09 18.06 СЗ 3 20 км 8/8 600 м
[Cu med, cong]
+18.2 +5.4 43 +18 +21 1007.1 947.9
12 18.06 С 3 20 км 8/8 600 м
[Cu med, cong]
+20.0 +6.4 41 +21 +22 комфорт 1006.4 947.6
15 18.06 С 4 20 км 5/5 600 м
[Cu med, cong]
+19.3 +6.4 43 +20 +20 1006.4 947.5 +20.7
18 18.06 штиль 0 50 км ?/? +13.7 +7.2 65 +13 +13 1008.5 948.4
21 18.06 СВ 1 10 км 3/3 600 м
[Sc diur, vesp]
+9.1 +6.5 84 +8 +8 1009.2 948.1
00 19.06 СВ 1 10 км ясно +6.1 +5.1 93 +5 +5 1009.9 948.1
03 19.06 С 1 10 км ясно +13.9 +9.1 73 +14 +19 1008.4 948.4 +6.1
06 19.06 С 4 20 км 6/4 600 м
[Cu hum Ci fib]
+20.8 +7.8 43 +22 +27 комфорт 1007.1 948.5
09 19.06 СЗ 5
{10}
20 км 8/8 600 м
[Cu med, cong]
+22.9 +6.6 35 +24 +25 комфорт 1006.1 947.9
12 19.06 З 3 20 км 9/9 600 м
[Cb calv]
+22.7 +7.6 38 +24 +24 комфорт 1006.1 947.9
15 19.06 СЗ 3
{10}
20 км 6/3 600 м
[Cu hum Ac lent]
+23.0 +5.4 32 +23 +24 комфорт 1006.3 948.1 +24.3
18 19.06 Ю 1 10 км 4/3 600 м
[Cu med, cong Ac lent]
+15.3 +7.6 60 +16 +16 1008.6 948.8
21 19.06 штиль 0 10 км 4/3 600 м
[Sc Ac lent]
+10.5 +7.9 84 +10 +10 1009.3 948.5
00 20.06 С 1 10 км 9/9 600 м
[Sc]
+8.6 +7.2 91 +8 +8 1009.9 948.7
03 20.06 штиль 0 20 км 8/3 600 м
[Cu Sc Ac trans]
+16.4 +9.8 65 +16 +19 1008.4 948.9 +8.5
06 20.06 З 4 20 км 3/0
[Ci sp]
+23.9 +5.7 31 +24 +33 комфорт 1006.7 948.7
09 20.06 З 3
{11}
20 км 8/8 600 м
[Cu med, cong]
+24.7 +6.4 31 +25 +27 комфорт 1005.9 948.1
12 20.06 З 4
{11}
20 км 8/5 600 м
[Cu med, cong Ci sp]
+24.5 +6.8 32 +25 +27 комфорт 1004.9 947.1
15 20.06 ЮЗ 2
{12}
20 км {ливн. осадки} 8/0
[Ac lent Ci sp]
+22.5 +8.9 42 +24 +25 комфорт 1004.1 946.0 +26.6 0.0
18 20.06 Ю 3 10 км {ливн. осадки} 5/3 600 м
[Cu med, cong Ac lent]
+18.0 +9.6 58 +18 +18 1003.6 944.7
21 20.06 З 2 10 км 5/5 600 м
[Cu med, cong]
+17.5 +10.2 62 +18 +18 1003.1 944.1

 

Местоположение метеостанции Зилаир (Башкирия, Россия): широта 52.22 долгота 57.40 высота над уровнем моря 521 м.

В архиве по умолчанию представлена погода в Зилаире за последнюю неделю. Архивные данные за месяц целиком и за предыдущие месяцы, начиная с января 2011 года, Вы можете получить, выбрав интересующий диапазон дат из раскрывающегося списка и нажав кнопку "Ввод!".


*Определитесь, кто Вы:
робот инопланетянин человек

Внимание! Время в таблицах - всемирное. Для получения местного времени необходимо прибавить поправку, которая в Зилаире равна 5 ч.

Смотрите также архив погоды в соседних городах и на ближайших метеорологических станциях:

Погода в Акъяре (Башкирия, Россия) (66 км)
Погода в Троицком Т (Оренбургская область, Россия) (71 км)
Погода в Кувандыке (Оренбургская область, Россия) (83 км)
Погода в Шульган-Таше (Башкирия, Россия) (95 км)
Погода в Старосубхангулово (Башкирия, Россия) (98 км)
Погода в Энергетике (Оренбургская область, Россия) (110 км)
Погода в Беляевке (Оренбургская область, Россия) (112 км)
Погода в Кизильском (Челябинская область, Россия) (115 км)
Погода в Кумертау (Башкирия, Россия) (125 км)
Погода в Орске (Оренбургская область, Россия) (152 км)

Пояснения к столбцам:

Ветер - указаны скорость ветра в м/с - средняя за 10 мин, порывы в срок и между сроками (в фигурных скобках) и направление, откуда дует ветер: С - северный, СВ - северо-восточный, В - восточный, ЮВ - юго-восточный, Ю - южный, ЮЗ - юго-западный, З - западный, СЗ - северо-западный.
Видимость - горизонтальная дальность видимости в метрах или километрах. При видимости от 1 до 10 км при отсутствии осадков обычно наблюдается дымка, при ухудшении видимости до 1 км и менее - туман. В сухую погоду видимость может ухудшаться дымом, пылью или мглою.
Явления - указаны атмосферные явления, наблюдавшиеся в срок или в последний час перед сроком; фигурными скобками обозначены явления, наблюдавшиеся между сроками (за 1-3 часа до срока); квадратными скобками обозначены град или гололедные отложения с указанием их диаметра в мм.
Облачность - указаны через наклонную черту общая и нижняя облачность в баллах и высота нижней границы облаков в метрах; квадратными скобками обозначены формы облаков: Ci - перистые, Cs - перисто-слоистые, Cc - перисто-кучевые, Ac - высококучевые, As - высокослоистые, Sc - слоисто-кучевые, Ns - слоисто-дождевые, Cu - кучевые, Cb - кучево-дождевые. Подробнее классификацию облаков см. в Атласе облаков (PDF).
T - Температура воздуха - температура, измеренная на высоте 2 м над землей.
Td - Температура точки росы - температура, при понижении до которой содержащийся в воздухе водяной пар достигнет насыщения.
f - Относительная влажность воздуха - влажноcть воздуха, измеренная на высоте 2 м над землей.
Te - Эффективная температура - температура, которую ощущает одетый по сезону человек в тени. Характеристика душности погоды. При расчете учитывается влияние влажности воздуха и скорости ветра на теплоощущения человека.
Tes - Эффективная температура на солнце - температура, которую ощущает человек, с поправкой на солнечный нагрев. Характеристика знойности погоды. Зависит от высоты солнца над горизонтом, облачности и скорости ветра. Ночью, в пасмурную погоду, а также при ветре 12 м/с и более поправка равна нулю.
P - Атмосферное давление - приведенное к уровню моря атмосферное давление.
Po - Атмосферное давление - измеренное на уровне метеостанции атмосферное давление.
Tmin - Минимальная температура - минимум температуры воздуха на высоте 2 м над землей.
Tmax - Максимальная температура - максимум температуры воздуха на высоте 2 м над землей.
R - Количество осадков - Количество выпавших осадков за период времени, мм. При наведении курсора мыши на число - период времени, за который выпало указанное количество осадков.
R24 - Количество осадков - Количество выпавших осадков за 24 часа, мм.
S - Снежный покров - Высота снежного покрова, см. При наведении курсора мыши на число - состояние снежного покрова и степень покрытия местности в баллах.